User: anonymous
Location: Caltech
(34.1382°N, 118.1253°W)
Time: 02:19:35
(UTC-07:00)
Language:

OAO 2 Rocket - Orbit

View from above orbital plane
View from above orbital plane
View from above satellite
View from above satellite

Ground track
Ground track

The orbit data is extracted from the following two-line orbital elements,

1 03598U 68110B   14113.11666052  .00000677  00000-0  16171-3 0  5959
2 03598 034.9948 354.5269 0050803 254.0619 263.9426 14.53575665398842
Epoch (UTC): 23 April 2014 02:47:59
Eccentricity: 0.0050803
inclination: 34.9948°
perigee height: 678 km
apogee height: 750 km
right ascension of ascending node: 354.5269°
argument of perigee: 254.0619°
revolutions per day: 14.53575665
mean anomaly at epoch: 263.9426°
orbit number at epoch: 39884

The dashed part of the orbit path shows where the satellite is in the earth's shadow,  

DLR